Edgbaston, United Kingdom

12:03 AM GMT on January 23, 2017 (GMT +0000)
Birmingham

Weather History for EGBB - October, 2012

Change the Weather History Date:

Friday, October 19, 2012

  Actual Average Record
Temperature  
Mean Temperature 48 °F -  
Max Temperature 55 °F 52 °F 68 °F (1997)
Min Temperature 41 °F 39 °F 30 °F (2002)
Degree Days  
Heating Degree Days 17    
Moisture  
Dew Point 48 °F    
Average Humidity 93    
Maximum Humidity 100    
Minimum Humidity 77    
Precipitation  
Precipitation 0.00 in 0.07 in - ()
Sea Level Pressure  
Sea Level Pressure 29.75 in    
Wind  
Wind Speed 4 mph ()    
Max Wind Speed 7 mph    
Max Gust Speed -    
Visibility 5.5 miles    
Events Fog , Rain    
Averages and records for this station are not official NWS values.
T = Trace of Precipitation, MM = Missing Value Source: Averaged Metar Reports

Daily Weather History Graph

Daily Weather History Graph

Search for Another Location

Airport or City:

Trip Planner

Search our weather history database for the weather conditions in past years. The results will help you decide how hot, cold, wet, or windy it might be!

Date:

Astronomy

Oct. 19, 2012 Rise Set
Actual Time 7:39 AM BST 6:02 PM BST
Civil Twilight 7:05 AM BST 6:37 PM BST
Nautical Twilight 6:25 AM BST 7:16 PM BST
Astronomical Twilight 5:46 AM BST 7:56 PM BST
Moon 12:37 PM BST (10/19) 8:57 PM BST (10/19)
Length of Visible Light 11h 32m
Length of Day
10h 22m
Waxing Crescent, 21% of the Moon is Illuminated
Oct 19
Waxing Crescent
Oct 22
First Quarter
Oct 29
Full
Nov 7
Last Quarter
Nov 13
New

Hourly Weather History & Observations

Time (BST) Temp. Windchill Dew Point Humidity Pressure Visibility Wind Dir Wind Speed Gust Speed Precip Events Conditions
12:20 AM 48.2 °F - 48.2 °F 100% 29.68 in 6.2 mi South 4.6 mph - N/A   Mostly Cloudy
12:50 AM 46.4 °F 44.3 °F 44.6 °F 93% 29.68 in 6.2 mi South 4.6 mph - N/A   Scattered Clouds
1:20 AM 46.4 °F 45.2 °F 46.4 °F 100% 29.68 in 6.2 mi South 3.5 mph - N/A Fog Shallow Fog
1:50 AM 44.6 °F 42.2 °F 44.6 °F 100% 29.68 in 5.6 mi South 4.6 mph - N/A Fog Shallow Fog
2:20 AM 46.4 °F 44.3 °F 46.4 °F 100% 29.71 in 5.0 mi South 4.6 mph - N/A   Unknown
2:50 AM 44.6 °F 42.2 °F 44.6 °F 100% 29.71 in 0.6 mi South 4.6 mph - N/A   Unknown
3:50 AM 41.0 °F 37.1 °F 41.0 °F 100% 29.71 in 0.1 mi South 5.8 mph - N/A Fog Fog
4:20 AM 42.8 °F 40.1 °F 42.8 °F 100% 29.71 in 0.4 mi South 4.6 mph - N/A Fog Fog
4:50 AM 44.6 °F 40.7 °F 44.6 °F 100% 29.71 in - South 6.9 mph - N/A   Mist
5:20 AM 42.8 °F 39.3 °F 42.8 °F 100% 29.71 in 3.1 mi South 5.8 mph - N/A   Mist
5:50 AM 42.8 °F 40.1 °F 42.8 °F 100% 29.71 in 5.6 mi South 4.6 mph - N/A   Unknown
6:20 AM 44.6 °F 43.1 °F 44.6 °F 100% 29.71 in - South 3.5 mph - N/A   Clear
6:50 AM 44.6 °F - 44.6 °F 100% 29.71 in 6.2 mi South 2.3 mph - N/A Fog Shallow Fog
7:20 AM 44.6 °F - 44.6 °F 100% 29.71 in 6.2 mi South 2.3 mph - N/A Fog Shallow Fog
7:50 AM 44.6 °F 43.1 °F 44.6 °F 100% 29.71 in 6.2 mi South 3.5 mph - N/A Fog Shallow Fog
8:20 AM 44.6 °F 42.2 °F 44.6 °F 100% 29.74 in - South 4.6 mph - N/A   Clear
8:50 AM 44.6 °F 43.1 °F 44.6 °F 100% 29.74 in - SSE 3.5 mph - N/A   Clear
9:20 AM 46.4 °F - 46.4 °F 100% 29.77 in - SSW 2.3 mph - N/A   Clear
9:50 AM 48.2 °F - 48.2 °F 100% 29.77 in - Calm Calm - N/A   Clear
10:20 AM 50.0 °F - 48.2 °F 94% 29.77 in - Calm Calm - N/A   Clear
10:50 AM 50.0 °F - 48.2 °F 94% 29.77 in - SSE 3.5 mph - N/A   Clear
11:20 AM 51.8 °F - 50.0 °F 94% 29.77 in 6.2 mi SE 4.6 mph - N/A   Partly Cloudy
11:50 AM 53.6 °F - 51.8 °F 94% 29.80 in 6.2 mi SSE 5.8 mph - N/A   Partly Cloudy
12:20 PM 53.6 °F - 50.0 °F 88% 29.77 in 6.2 mi South 3.5 mph - N/A   Partly Cloudy
12:50 PM 53.6 °F - 50.0 °F 88% 29.77 in 6.2 mi Variable 3.5 mph - N/A   Partly Cloudy
1:20 PM 55.4 °F - 50.0 °F 82% 29.77 in 6.2 mi SSE 2.3 mph - N/A   Partly Cloudy
1:50 PM 55.4 °F - 50.0 °F 82% 29.74 in 6.2 mi SSE 2.3 mph - N/A   Partly Cloudy
2:20 PM 55.4 °F - 50.0 °F 82% 29.74 in 6.2 mi SE 2.3 mph - N/A   Partly Cloudy
2:50 PM 55.4 °F - 50.0 °F 82% 29.74 in 6.2 mi Variable 3.5 mph - N/A   Partly Cloudy
3:20 PM 55.4 °F - 50.0 °F 82% 29.74 in 6.2 mi SE 4.6 mph - N/A   Partly Cloudy
3:50 PM 55.4 °F - 48.2 °F 77% 29.77 in 6.2 mi SE 4.6 mph - N/A   Partly Cloudy
4:20 PM 53.6 °F - 48.2 °F 82% 29.77 in - SE 5.8 mph - N/A   Clear
4:50 PM 53.6 °F - 48.2 °F 82% 29.77 in - SSE 6.9 mph - N/A   Clear
5:20 PM 53.6 °F - 48.2 °F 82% 29.77 in 6.2 mi ESE 4.6 mph - N/A   Partly Cloudy
5:50 PM 53.6 °F - 48.2 °F 82% 29.77 in - SE 2.3 mph - N/A   Clear
6:20 PM 51.8 °F - 50.0 °F 94% 29.77 in 6.2 mi SE 3.5 mph - N/A Rain Light Rain
6:50 PM 51.8 °F - 50.0 °F 94% 29.77 in 6.2 mi SE 2.3 mph - N/A Rain Light Rain
7:20 PM 51.8 °F - 50.0 °F 94% 29.77 in 6.2 mi SSE 3.5 mph - N/A Rain Light Rain
7:50 PM 51.8 °F - 50.0 °F 94% 29.77 in 6.2 mi Calm Calm - N/A Rain Light Rain
8:20 PM 51.8 °F - 50.0 °F 94% 29.77 in 6.2 mi SSE 2.3 mph - N/A   Mostly Cloudy
8:50 PM 51.8 °F - 50.0 °F 94% 29.80 in 6.2 mi South 3.5 mph - N/A   Mostly Cloudy
9:20 PM 51.8 °F - 50.0 °F 94% 29.80 in 6.2 mi South 2.3 mph - N/A   Mostly Cloudy
9:50 PM 50.0 °F - 50.0 °F 100% 29.80 in 6.2 mi SE 4.6 mph - N/A   Mostly Cloudy
10:20 PM 50.0 °F - 48.2 °F 94% 29.80 in 6.2 mi South 3.5 mph - N/A   Mostly Cloudy
10:50 PM 50.0 °F - 48.2 °F 94% 29.80 in 6.2 mi South 3.5 mph - N/A   Mostly Cloudy
11:20 PM 50.0 °F - 48.2 °F 94% 29.80 in 6.2 mi Variable 3.5 mph - N/A   Scattered Clouds
11:50 PM 50.0 °F - 48.2 °F 94% 29.83 in - Variable 4.6 mph - N/A   Clear